User: anonymous   Login
Location: *
(33.8649°S, 62.1526°E)
Time: 01:38:47
(UTC+00:00)
Language:

BREEZE-M DEB - Orbit

View from above orbital plane
View from above orbital plane
View from above satellite
View from above satellite

Ground track
Ground track

The orbit data is extracted from the following two-line orbital elements,

1 32480U 08003C   21100.51953068 -.00000056  00000-0  67014-3 0  9992
2 32480  45.0464 257.7266 7071046 273.4875  15.1009  2.30087914110831
Epoch (UTC): 10 April 2021 12:28:07
Eccentricity: 0.7071046
inclination: 45.0464°
perigee height: 720 km
apogee height: 34996 km
right ascension of ascending node: 257.7266°
argument of perigee: 273.4875°
revolutions per day: 2.30087914
mean anomaly at epoch: 15.1009°
orbit number at epoch: 11083

The dashed part of the orbit path shows where the satellite is in the earth's shadow,  

DLR